Regional Weather Roundup
Issued by NWS

Home | Current Version | Previous Version | Graphics & Text | Print | Product List | Glossary On
Versions: 1 2 3 4 5 6 7 8 9 10 11 12 13 14 15 16 17 18 19 20 21 22 23 24 25 26 27 28 29 30 31 32 33 34 35 36 37 38 39 40 41 42 43 44 45 46 47 48 49 50
000
ASUS43 KFSD 241702
RWRSD

WEATHER ROUNDUP FOR SOUTH DAKOTA
NATIONAL WEATHER SERVICE SIOUX FALLS SD
1200 PM CDT THU MAY 24 2018

NOTE: "FAIR" INDICATES FEW OR NO CLOUDS BELOW 12,000 FEET WITH NO
SIGNIFICANT WEATHER AND/OR OBSTRUCTIONS TO VISIBILITY.


SDZ001>005-009-010-012>017-241800-
NORTHWEST AND NORTH CENTRAL SOUTH DAKOTA

CITY           SKY/WX    TMP DP  RH WIND       PRES   REMARKS
BUFFALO          N/A     74  52  46 W20       29.83R
FAITH            N/A     75  56  51 W16       29.87S
MOBRIDGE       SUNNY     79  61  53 S14       29.81F
$$

SDZ012>016-024>037-041>051-057-063-072>074-241800-
SOUTHWEST AND SOUTH CENTRAL SOUTH DAKOTA

CITY           SKY/WX    TMP DP  RH WIND       PRES   REMARKS
RAPID CTY ARPT SUNNY     77  53  43 N10G18    29.92R
PIERRE         SUNNY     78  63  59 VRB7      29.86F
CUSTER         SUNNY     68  42  38 W16       30.05R
ELLSWORTH AFB  SUNNY     75  49  39 N12       29.92R
PHILIP         SUNNY     76  61  59 SW13      29.88F
PINE RIDGE     SUNNY     76  54  46 W12       29.97S
SPEARFISH      FAIR      72  48  43 NW13G18   29.96S
WINNER         FAIR      79  62  56 SW14G23   29.92R
$$

SDZ004>011-016>023-039-040-241800-
NORTHEAST SOUTH DAKOTA

CITY           SKY/WX    TMP DP  RH WIND       PRES   REMARKS
ABERDEEN       PTSUNNY   81  58  45 SW17G26   29.87F
WATERTOWN      SUNNY     80  59  48 SW15      29.91F
BROOKINGS      CLOUDY    77  63  61 S12       29.94R
SISSETON         N/A     82  61  48 SW12      29.87S
$$

SDZ017-020-022-023-036>040-048>070-241800-
SOUTHEAST SOUTH DAKOTA

CITY           SKY/WX    TMP DP  RH WIND       PRES   REMARKS
SIOUX FALLS    CLOUDY    80  69  69 S21G29    29.93R
HURON          PTSUNNY   81  61  50 VRB6      29.89S
CHAMBERLAIN    MOSUNNY   81  66  59 SW8G18    29.91R
MITCHELL       PTSUNNY   77  64  64 S8        29.92R
YANKTON        MOSUNNY   82  66  58 S18G28    29.92S
$$

ABBREVIATIONS USED IN REMARKS
   TC - TEMPERATURE IN CELSIUS
  WCI - WIND CHILL INDEX
   HX - HEAT INDEX
  VSB - VISIBILITY





USA.gov is the U.S. government's official web portal to all federal, state and local government web resources and services.